Weather History for Alicante, Spain

Change the Weather History Date:

Wednesday, February 6, 2013

  Actual Average Record
Temperature  
Mean Temperature 58 °F -  
Max Temperature 62 °F 62 °F 69 °F (1999)
Min Temperature 53 °F 44 °F 37 °F (2011)
Degree Days  
Heating Degree Days 8    
Growing Degree Days 8 (Base 50)    
Moisture  
Dew Point 31 °F    
Average Humidity 36    
Maximum Humidity 55    
Minimum Humidity 14    
Precipitation  
Precipitation 0.00 in - - ()
Sea Level Pressure  
Sea Level Pressure 29.98 in    
Wind  
Wind Speed 14 mph ()    
Max Wind Speed 28 mph    
Max Gust Speed 46 mph    
Visibility 7.2 miles    
Events      
Averages and records for this station are not official NWS values.
T = Trace of Precipitation, MM = Missing Value Source: Averaged Metar Reports

Daily Weather History Graph

Daily Weather History Graph

Search for Another Location

Airport:

Trip Planner

Search our weather history database for the weather conditions in past years. The results will help you decide how hot, cold, wet, or windy it might be!

Date:

Astronomy

Feb. 06, 2013 Rise Set
Actual Time 8:02 AM CET 6:30 PM CET
Civil Twilight 7:34 AM CET 6:58 PM CET
Nautical Twilight 7:03 AM CET 7:29 PM CET
Astronomical Twilight 6:32 AM CET 8:00 PM CET
Moon 4:29 AM CET (2/6) 2:34 PM CET (2/6)
Length of Visible Light 11h 23m
Length of Day
10h 28m
Waning Crescent, 19% of the Moon is Illuminated
Feb 6
Waning Crescent
Feb 10
New
Feb 17
First Quarter
Feb 25
Full
Mar 4
Last Quarter

Hourly Weather History & Observations

Time (CET) Temp. Dew Point Humidity Pressure Visibility Wind Dir Wind Speed Gust Speed Precip Events Conditions
12:00 AM 60.8 °F 41.0 °F 48% 30.04 in - West 10.4 mph - N/A   Clear
12:30 AM 60.8 °F 41.0 °F 48% 30.04 in - West 11.5 mph - N/A   Clear
1:00 AM 58 °F 38 °F 35% 30.03 in 12 mi WNW 4.6 mph - -  
1:00 AM 57.2 °F 41.0 °F 55% 30.01 in - WNW 4.6 mph - N/A   Clear
1:30 AM 60.8 °F 39.2 °F 45% 30.01 in - SW 8.1 mph - N/A   Clear
2:00 AM 59.0 °F 39.2 °F 48% 29.98 in - Calm Calm - N/A   Clear
3:00 AM 60.8 °F 39.2 °F 45% 29.98 in - West 13.8 mph - N/A   Clear
3:30 AM 60.8 °F 39.2 °F 45% 29.95 in - West 18.4 mph 31.1 mph N/A   Clear
4:00 AM 59.0 °F 39.2 °F 48% 29.95 in - West 16.1 mph - N/A   Clear
4:30 AM 59.0 °F 39.2 °F 48% 29.95 in - WNW 10.4 mph - N/A   Clear
5:00 AM 57.2 °F 41.0 °F 55% 29.95 in - WNW 8.1 mph - N/A   Clear
5:30 AM 57.2 °F 39.2 °F 51% 29.98 in - WNW 17.3 mph 31.1 mph N/A   Clear
6:00 AM 57.2 °F 41.0 °F 55% 29.98 in - NW 12.7 mph - N/A   Clear
6:30 AM 55.4 °F 39.2 °F 54% 29.98 in - WNW 15.0 mph 26.5 mph N/A   Clear
7:00 AM 55.4 °F 32.0 °F 41% 29.98 in - WNW 19.6 mph 31.1 mph N/A   Clear
7:30 AM 55.4 °F 28.4 °F 36% 29.98 in - WNW 21.9 mph 34.5 mph N/A   Clear
8:00 AM 53.6 °F 30.2 °F 41% 30.01 in 6.2 mi WNW 16.1 mph 29.9 mph N/A   Partly Cloudy
8:30 AM 53.6 °F 30.2 °F 41% 30.01 in 6.2 mi WNW 10.4 mph 25.3 mph N/A   Partly Cloudy
9:30 AM 55.4 °F 30.2 °F 38% 30.01 in 6.2 mi WNW 17.3 mph - N/A   Partly Cloudy
10:00 AM 55.4 °F 30.2 °F 38% 30.01 in 6.2 mi WNW 26.5 mph 40.3 mph N/A   Partly Cloudy
10:30 AM 55.4 °F 30.2 °F 38% 30.04 in 6.2 mi WNW 21.9 mph 33.4 mph N/A   Partly Cloudy
11:00 AM 57.2 °F 30.2 °F 36% 30.04 in 6.2 mi WNW 23.0 mph - N/A   Partly Cloudy
11:30 AM 59.0 °F 30.2 °F 34% 30.01 in 6.2 mi WNW 27.6 mph 43.7 mph N/A   Partly Cloudy
12:00 PM 59.0 °F 30.2 °F 34% 30.01 in 6.2 mi WNW 25.3 mph 36.8 mph N/A   Partly Cloudy
12:30 PM 59.0 °F 30.2 °F 34% 30.01 in 6.2 mi WNW 24.2 mph 36.8 mph N/A   Partly Cloudy
1:00 PM 59 °F 27 °F 18% 30.03 in 19 mi WNW 18.4 mph - -   Scattered Clouds
1:00 PM 59.0 °F 28.4 °F 31% 30.01 in 6.2 mi WNW 18.4 mph 32.2 mph N/A   Partly Cloudy
1:30 PM 60.8 °F 28.4 °F 29% 30.01 in 6.2 mi WNW 18.4 mph - N/A   Partly Cloudy
2:00 PM 60.8 °F 26.6 °F 27% 29.98 in 6.2 mi WNW 23.0 mph 35.7 mph N/A   Partly Cloudy
2:30 PM 62.6 °F 26.6 °F 26% 29.95 in 6.2 mi WNW 24.2 mph 38.0 mph N/A   Partly Cloudy
3:00 PM 62.6 °F 23.0 °F 22% 29.95 in 6.2 mi WNW 26.5 mph 39.1 mph N/A   Partly Cloudy
3:30 PM 62.6 °F 24.8 °F 24% 29.95 in 6.2 mi WNW 24.2 mph - N/A   Partly Cloudy
4:00 PM 62.6 °F 26.6 °F 26% 29.95 in 6.2 mi WNW 19.6 mph 32.2 mph N/A   Partly Cloudy
4:30 PM 62.6 °F 24.8 °F 24% 29.95 in 6.2 mi WNW 17.3 mph 33.4 mph N/A   Partly Cloudy
5:00 PM 60.8 °F 24.8 °F 25% 29.95 in 6.2 mi WNW 18.4 mph - N/A   Partly Cloudy
5:30 PM 60.8 °F 24.8 °F 25% 29.95 in 6.2 mi WNW 20.7 mph 36.8 mph N/A   Partly Cloudy
6:30 PM 59.0 °F 23.0 °F 25% 29.95 in 6.2 mi WNW 17.3 mph 33.4 mph N/A   Partly Cloudy
7:00 PM 57 °F 21 °F 14% 29.96 in 19 mi WNW 16.1 mph - -   Scattered Clouds
7:00 PM 59.0 °F 23.0 °F 25% 29.95 in 6.2 mi WNW 15.0 mph 26.5 mph N/A   Partly Cloudy
7:30 PM 57.2 °F 24.8 °F 29% 29.95 in 6.2 mi WNW 15.0 mph 28.8 mph N/A   Partly Cloudy
8:00 PM 57.2 °F 24.8 °F 29% 29.95 in 6.2 mi WNW 20.7 mph 34.5 mph N/A   Partly Cloudy
8:30 PM 57.2 °F 24.8 °F 29% 29.95 in 6.2 mi WNW 19.6 mph - N/A   Partly Cloudy
9:00 PM 57.2 °F 24.8 °F 29% 29.95 in 6.2 mi WNW 16.1 mph 35.7 mph N/A   Partly Cloudy
9:30 PM 57.2 °F 24.8 °F 29% 29.95 in 6.2 mi WNW 21.9 mph 35.7 mph N/A   Partly Cloudy
10:00 PM 57.2 °F 26.6 °F 31% 29.95 in 6.2 mi WNW 27.6 mph 46.0 mph N/A   Partly Cloudy
10:30 PM 57.2 °F 26.6 °F 31% 29.95 in 6.2 mi WNW 27.6 mph 41.4 mph N/A   Partly Cloudy
11:00 PM 55.4 °F 26.6 °F 33% 29.95 in 6.2 mi WNW 26.5 mph 46.0 mph N/A   Partly Cloudy
11:30 PM 55.4 °F 26.6 °F 33% 29.95 in 6.2 mi WNW 25.3 mph 40.3 mph N/A   Partly Cloudy